Other Public Products
Issued by NWS Grand Forks, ND

Home | Current Version | Previous Version | Text Only | Print | Product List | Glossary On
Versions: 1 2 3 4 5 6 7 8 9 10 11 12 13 14 15 16 17 18 19 20 21 22 23 24 25 26 27 28 29 30 31 32 33 34 35 36 37 38 39 40 41 42 43 44 45 46 47 48 49 50
000
FPUS83 KFGF 241510
OPUFGF
PRAIRIE TO PINES WEATHER ROUNDUP
NATIONAL WEATHER SERVICE EASTERN NORTH DAKOTA/GRAND FORKS ND
1000 AM CDT THU JUL 24 2014

 **SATELLITE DATA USED TO AUGMENT SKY COVER AT AUTOMATED STATIONS**
 *****  WEATHER ACROSS EASTERN NORTH DAKOTA  *****

CITY           SKY/WX    TMP DP  RH WIND       PRES   REMARKS
GRAND FORKS    CLOUDY    68  60  75 S9        30.03F
GRAND FORKS AF PTSUNNY   69  62  81 S7        30.06S
GRAND CITY NWS   N/A     68 N/A N/A S7          N/A
BUXTON         NOT AVBL
DEVILS LAKE    CLOUDY    66  57  72 W18       30.13R
FARGO          PTSUNNY   73  59  61 S13       30.04F
WAHPETON ARPT  MOSUNNY   70  54  56 SE13      30.05F
$$

 *****  WEATHER ACROSS CENTRAL AND WESTERN NORTH DAKOTA  *****

CITY           SKY/WX    TMP DP  RH WIND       PRES   REMARKS
JAMESTOWN      CLOUDY    68  57  68 SE6       30.03R
BISMARCK       CLOUDY    65  61  87 NE17      29.96F
MINOT          CLOUDY    64  60  87 SE15G23   29.86S
MINOT AFB      CLOUDY    64  64  99 E7        29.87R
GARRISON         N/A     64  62  93 E16G24    29.89F
WILLISTON      PTSUNNY   73  59  61 SE21      29.85S
DICKINSON      PTSUNNY   66  61  84 E22G29    29.85F
HETTINGER      PTSUNNY   66  60  81 E10       29.89F
$$

 *****  OTHER OBSERVATIONS NORTHEAST NORTH DAKOTA  *****

CITY           SKY/WX    TMP DP  RH WIND       PRES   REMARKS
WALHALLA         N/A     66  61  82 SE8         N/A
LANGDON        PTSUNNY   66  59  77 S9G16     30.07S
CAVALIER       FAIR      66  59  77 S7        30.07S
GRAFTON        FAIR      66  59  77 SE7       30.07R
CANDO          CLOUDY    63  59  88 S8        30.10R THUNDER
FORT TOTTEN      N/A     66  59  79 SW7       29.95S
ROLLA          RAIN      61  61 100 SE13      30.03F
RUGBY          PTSUNNY   61  61 100 SE22      29.93F FOG
 ***** THE ABOVE OBSERVATIONS ARE NON NWS ARE NOT QUALITY
        CONTROLLED AND MAY MIS-REPORT RAIN FOR SNOW...
$$

 *****  OTHER OBSERVATIONS SOUTHEAST NORTH DAKOTA *****

CITY           SKY/WX    TMP DP  RH WIND       PRES   REMARKS
COOPERSTOWN    NOT AVBL
VALLEY CITY    FAIR      68  59  73 SE12G23   30.02F
OAKES          NOT AVBL
GWINNER        MOSUNNY   72  59  64 SE13G18   30.02F
BUFFALO        NOT AVBL
WYNDMERE       NOT AVBL
 ***** THE ABOVE OBSERVATIONS ARE NON NWS ARE NOT QUALITY
       CONTROLLED AND MAY MIS-REPORT RAIN FOR SNOW...
$$

  *****  WEATHER ACROSS NORTHERN MINNESOTA  *****

CITY           SKY/WX    TMP DP  RH WIND       PRES   REMARKS
FLAG ISLAND    MOSUNNY   66  55  68 S5        30.09S
WARROAD        NOT AVBL
ROSEAU         MOSUNNY   68  61  77 S3        30.08F
HALLOCK          N/A     68  59  73 S7        30.06S
THF RVR FALLS  MOSUNNY   70  61  73 S7        30.08S
HALSTAD          N/A     72  59  62 S9          N/A
FOSSTON        MOSUNNY   70  57  64 S10       30.09S
BAUDETTE       PTSUNNY   67  57  70 S6        30.10F
WASKISH        PTSUNNY   68  59  73 CALM      30.10S
CROOKSTON      LGT RAIN  68  61  77 S6        30.06F
$$
  *****  WEATHER ACROSS CENTRAL AND WEST MINNESOTA  *****

CITY           SKY/WX    TMP DP  RH WIND       PRES   REMARKS
BEMIDJI        MOSUNNY   71  56  60 S10       30.10F
PARK RAPIDS    PTSUNNY   70  55  59 S12       30.11F
WADENA         MOSUNNY   70  55  60 S8        30.10F
DETROIT LAKES  MOSUNNY   72  57  60 S8        30.10F
MOORHEAD       PTSUNNY   73  61  64 S10G17    30.07S
FERGUS FALLS   MOSUNNY   72  54  53 SE12      30.07F
ELBOW LAKE     FAIR      70  57  62 SE12      30.08F
MORRIS MN      MOSUNNY   72  57  60 SE13      30.07F
STAPLES        MOSUNNY   70  54  56 S8        30.11F
WHEATON        MOSUNNY   68  57  68 SE12      30.06F
$$
  *****  WEATHER ELSEWHERE ACROSS MINNESOTA  *****

CITY           SKY/WX    TMP DP  RH WIND       PRES   REMARKS
DULUTH         MOSUNNY   70  55  59 SW5       30.15S
INTRNTL FALLS  MOSUNNY   68  54  60 SE6       30.11F
ELY            SUNNY     66  46  48 CALM      30.15S
CLOQUET        SUNNY     68  55  64 S7        30.15F
BRAINERD       MOSUNNY   71  58  63 S6        30.13F
HIBBING        SUNNY     70  56  61 SE5       30.13F
ALEXANDRIA     MOSUNNY   70  54  56 SE10      30.12F
SAINT CLOUD    MOSUNNY   73  58  59 SW5       30.13F
MINNEAPOLIS    MOSUNNY   73  57  57 SE7       30.14F
$$

  *****  WEATHER ACROSS SOUTH DAKOTA  *****

CITY           SKY/WX    TMP DP  RH WIND       PRES   REMARKS
SIOUX FALLS    PTSUNNY   69  62  78 SE9       30.06R
BROOKINGS      NOT AVBL
WATERTOWN      PTSUNNY   69  58  67 S14       30.06S
HURON          LGT RAIN  68  63  84 SE10      29.96F
SISSETON         N/A     71  58  63 S13G20    30.04F
ABERDEEN       CLOUDY    70  60  70 SE17G24   29.96F
MITCHELL       MOSUNNY   73  64  73 MISG      29.97F
PIERRE         PTSUNNY   73  60  63 SE24G32   29.84F
MOBRIDGE       CLOUDY    72  61  68 SE24G36   29.80F
RAPID CITY     MOSUNNY   76  68  76 S7        29.84F
$$

  *****  SOME WEATHER IN NEARBY STATES *****

CITY           SKY/WX    TMP DP  RH WIND       PRES   REMARKS
GLASGOW MT     SUNNY     73  60  63 SE14      29.80R
GREAT FALLS MT SUNNY     67  53  61 SW9       29.93F
CHEYENNE WY    PTSUNNY   83  44  25 W28G35    30.17R
SCOTTSBLUFF NE SUNNY     78  65  63 VRB3      29.99S
OMAHA NE       PTSUNNY   74  59  59 SE10      30.15R
DES MOINES IA  CLOUDY    75  62  64 VRB5      30.16R
DAVENPORT IA   SUNNY     70  52  52 SE8       30.18S
CHICAGO IL     MOSUNNY   68  52  56 NE12      30.16F
EAU CLAIRE WI  SUNNY     71  55  56 CALM      30.15S
LA CROSSE WI   NOT AVBL
$$

  *****  SOME NATIONAL WEATHER *****

CITY           SKY/WX    TMP DP  RH WIND       PRES   REMARKS
LA GUARDIA NY  PTSUNNY   76  62  62 N9        29.86R
RALEIGH NC     PTSUNNY   79  70  74 NE5       29.93S
ATLANTA GA     MOSUNNY   82  71  69 W9        30.02S
NEW ORLEANS LA PTSUNNY   82  73  74 W5        30.01S
OKLAHOMA CITY  SUNNY     83  67  58 SE9       30.10S
ALBUQUERQUE NM MOSUNNY   77  51  40 N3        30.34S
SALT LAKE CITY MOSUNNY   82  38  20 NW9       30.04R
LOS ANGELES CA SUNNY     72  62  71 CALM      29.88S
BOISE ID       SUNNY     61  42  49 NW16G23   30.20R
SEATTLE WA     LGT RAIN  58  52  80 SW8       30.13R
$$

*** WEATHER ACROSS MANITOBA...SASKATCHEWAN AND ONTARIO ***
                ***ONTARIO***

CITY           SKY/WX    TMP DP  RH WIND       PRES   REMARKS
GERALDTON      PTSUNNY   68  54  60 NW8       30.04F
THUNDER BAY    MOSUNNY   68  54  60 W7        30.11F
SIOUX LOOKOUT  MOSUNNY   70  50  49 W5        30.11F
TORONTO        PTSUNNY   68  46  45 N9G17     30.09R
BIG TROUT LK   SUNNY     66  52  59 NW6       29.94F
PICKLE LAKE    MOSUNNY   70  48  46 W10G18    30.03F
DRYDEN         SUNNY     68  50  52 SW5       30.11F
KENORA         PTSUNNY   68  48  49 S7        30.12F
$$
                *** MANITOBA***

CITY           SKY/WX    TMP DP  RH WIND       PRES   REMARKS
BRANDON        CLOUDY    61  57  88 SE13      29.98F
DAUPHIN        CLOUDY    66  59  77 SE7       29.95F
ISLAND LAKE    MOSUNNY   72  55  56 W8        30.01F
PILOT MOUND      N/A     64  59  82 S10         N/A
THE PAS        MOSUNNY   72  61  68 SE12      29.95S
THOMPSON       SUNNY     72  59  64 W6        29.97F
WINNIPEG       NOT AVBL
LYNN LAKE      SUNNY     73  55  53 VRB2      29.97S
CHURCHILL      MOSUNNY   63  54  72 NE8       29.93F
GILLAM         CLOUDY    66  55  68 NW3       29.92F
$$
                ***SASKATCHEWAN***

CITY           SKY/WX    TMP DP  RH WIND       PRES   REMARKS
ESTEVAN        PTSUNNY   64  61  88 SE13      29.80
KINDERSLEY     MOSUNNY   70  63  78 W8        29.76R
LLOYDMINSTER   PTSUNNY   68  63  83 S15       29.72F
PRINCE ALBERT  CLOUDY    63  61  94 E15       29.77F
REGINA         PTSUNNY   68  61  77 S13       29.80S
YORKTON        SUNNY     66  59  77 SE17G24   29.86F



USA.gov is the U.S. government's official web portal to all federal, state and local government web resources and services.